METEOR 2-5 DEB, 39605

Orbit data source: Space-Track

METEOR 2-5 DEB, 39605 is space debris in LEO originally from a launch on Wed, 31 Oct 1979 UTC launched from the Plesetsk Missile And Space Complex (PKMTR). Debris objects in space refer to the collection of defunct objects orbiting the Earth. Examples of debris include non-operational satellites, rocket bodies, and fragments generated from explosions, collisions, or faulty payload assembly.

Loading next visibility...
Identifier
39605, 1979-095CG
Orbit
LEO
Country
Flag of CISCIS
Related business
Manufacturer
Unknown
Mission
Spacecraft
Bus & Motor
Unknown
Mass
Unknown
Launch date (UTC)
1979-10-31 (46 years ago)
Launch vehicle
Unknown
Launch site
Plesetsk Missile And Space Complex (PKMTR)
Object type
Payload
Rocket body
Debris
Shape & HBR
Unknown shape, 0.1 m
Radar Cross Section
Small (<0.1 m²)

Expand to show TLE details & history
Last TLE update: 1 day ago

TLE from 1 day ago
0 METEOR 2-5 DEB
1 39605U 79095CG  25292.93803426  .00012544  00000-0  33977-2 0  9995
2 39605  81.1843 357.3869 0016592 334.3828 204.9983 14.47546773617877
Epoch: 2025-10-19T22:30Z
TLE epoch observation values (Epoch: 2025-10-19T22:30:46.160Z)
Latitude
0.57678°
Longitude
170.95807°
Altitude
747.248 km
Speed
7.475 km/s
True Right ascension
11h 49m 11s
True Declination
0° 34' 24"
Sunlit
Object was in daylight at epoch
Visualization orbit readout
Latitude
Unknown
Longitude
Unknown
Altitude
Unknown
Speed
Unknown
Apparent Right ascension
Unknown
Apparent Declination
Unknown
Sunlit
N/A
Visualization observer readout
Local Sidereal Time
01:14:28
Azimuth
Unknown
Elevation
Unknown
Doppler factor
Unknown
Orbital elements
Apogee altitude
742.595 km
Perigee altitude
719.004 km
Semi-major axis
7,108.936 km
Eccentricity
0.00166
Inclination
81.1843°
RAAN
357.3869°
Arg. of periapsis
334.3828°
True anomaly
204.9181°
Mean anomaly
204.9983°
Eccentric anomaly
204.95819°
Mean motion
3.62106 °/min
Orbital period
99.42 mins
BSTAR
0.0033977
Loading maneuver chart data...
Computing Atmospheric mass density...

Documentation

Showing up to 5 results
|